THOR AGENA D R/B, 727

Orbit data source: Space-Track

THOR AGENA D R/B, 727 is space debris in LEO originally from a launch on Sat, 11 Jan 1964 UTC via a THOR SLV-2A AGENA D launch vehicle from the Air Force Western Test Range (AFWTR). Debris objects in space refer to the collection of defunct objects orbiting the Earth. Examples of debris include non-operational satellites, rocket bodies, and fragments generated from explosions, collisions, or faulty payload assembly.

Loading next visibility...
Identifier
727, 1964-001A
Orbit
LEO
Country
Flag of USUS
Related business
Manufacturer
HRB-Singer
Mission
Spacecraft
Bus & Motor
AFTRACK, Unknown motor
Mass
~700 kg wet, 5 kg dry
Launch date (UTC)
1964-01-11 (62 years ago)
Launch vehicle
THOR SLV-2A AGENA D
Launch site
Air Force Western Test Range (AFWTR)
Object type
Payload
Rocket body
Debris
Shape & HBR
Unknown
Radar Cross Section
Large (>1 m²)

Expand to show TLE details & history
Last TLE update: 1 day ago

TLE from 1 day ago
0 THOR AGENA D R/B
1 00727U 64001A   26094.37966874  .00000024  00000-0  56767-4 0  9999
2 00727  69.9040  88.8749 0012169 154.5264 205.6443 13.95786957166856
Epoch: 2026-04-04T09:06Z
TLE epoch observation values (Epoch: 2026-04-04T09:06:43.379Z)
Latitude
-0.00001°
Longitude
119.49387°
Altitude
918.723 km
Speed
7.389 km/s
True Right ascension
05h 55m 29s
True Declination
0° 00' 00"
Sunlit
Object was in daylight at epoch
Visualization orbit readout
Latitude
Unknown
Longitude
Unknown
Altitude
Unknown
Speed
Unknown
Apparent Right ascension
Unknown
Apparent Declination
Unknown
Sunlit
N/A
Visualization observer readout
Local Sidereal Time
16:07:38
Azimuth
Unknown
Elevation
Unknown
Doppler factor
Unknown
Orbital elements
Apogee altitude
915.339 km
Perigee altitude
897.609 km
Semi-major axis
7,284.611 km
Eccentricity
0.00122
Inclination
69.904°
RAAN
88.8749°
Arg. of periapsis
154.5264°
True anomaly
205.58403°
Mean anomaly
205.6443°
Eccentric anomaly
205.61416°
Mean motion
3.49087 °/min
Orbital period
103.13 mins
BSTAR
0.000056767
Loading maneuver chart data...
Computing Atmospheric mass density...
Loading historical data...
Loading historical data...
Loading historical data...
Loading historical data...
Loading historical data...
Loading historical data...
Loading historical data...
Other satellites on launch #1 in the year 1964 (1964-01-11 UTC)

Documentation

Showing up to 5 results
|